IK7IZV Weather Reports


Display with metric or nautical units.
time (UTC)temp
F
wind
direction
speed
MPH
gust
MPH
rain 1hr
in
rain 24hr
in
rain mn
in
humidity
%
barometer
mb
20260901204506 81 272 0.0 2.0 0.00 0.00 0.00 66 1017.6
20260901203013 81 255 0.0 2.0 0.00 0.00 0.00 66 1017.6
20260901201504 81 281 0.0 5.0 0.00 0.00 0.00 66 1017.6
20260901200013 81 268 1.0 5.0 0.00 0.00 0.00 67 1017.7
20260901194503 82 274 2.0 6.0 0.00 0.00 0.00 68 1017.7
20260901193002 83 281 0.0 5.0 0.00 0.00 0.00 68 1017.6
20260901191501 83 254 1.0 4.0 0.00 0.00 0.00 70 1017.4
20260901190108 83 219 0.0 3.0 0.00 0.00 0.00 72 1017.3
20260901190001 83 201 0.0 1.0 0.00 0.00 0.00 72 1017.3
20260901184559 83 198 0.0 3.0 0.00 0.00 0.00 72 1017.4
20260901183102 83 308 0.0 2.0 0.00 0.00 0.00 73 1017.3
20260901181559 83 357 0.0 3.0 0.00 0.00 0.00 75 1017.2
20260901180058 83 4 1.0 4.0 0.00 0.00 0.00 75 1017.1
20260901174558 83 3 3.0 7.0 0.00 0.00 0.00 75 1016.8
20260901173107 83 41 3.0 6.0 0.00 0.00 0.00 76 1016.7
20260901171554 83 4 4.0 8.0 0.00 0.00 0.00 75 1016.7
20260901170058 83 78 5.0 10.0 0.00 0.00 0.00 75 1016.8
20260901164616 84 13 4.0 9.0 0.00 0.00 0.00 76 1016.8
20260901163052 84 37 6.0 10.0 0.00 0.00 0.00 77 1016.7
20260901161552 84 358 6.0 10.0 0.00 0.00 0.00 78 1016.9
20260901160054 84 68 6.0 12.0 0.00 0.00 0.00 78 1017.0
20260901154551 84 19 6.0 11.0 0.00 0.00 0.00 77 1017.0
20260901153049 84 40 9.0 13.0 0.00 0.00 0.00 77 1017.0
20260901151551 84 51 6.0 12.0 0.00 0.00 0.00 78 1017.0
20260901150047 84 34 7.0 11.0 0.00 0.00 0.00 77 1016.9
20260901144547 84 71 10.0 13.0 0.00 0.00 0.00 79 1017.0
20260901143046 84 69 9.0 14.0 0.00 0.00 0.00 78 1016.9
20260901141556 84 74 8.0 13.0 0.00 0.00 0.00 79 1017.0
20260901140047 84 79 8.0 13.0 0.00 0.00 0.00 78 1017.0
20260901134543 84 85 9.0 13.0 0.00 0.00 0.00 76 1017.1
20260901133045 84 68 8.0 13.0 0.00 0.00 0.00 78 1017.2
20260901131541 84 1 8.0 14.0 0.00 0.00 0.00 75 1017.3
20260901130039 84 57 9.0 14.0 0.00 0.00 0.00 74 1017.5
20260901124550 84 56 9.0 15.0 0.00 0.00 0.00 77 1017.6
20260901123038 84 95 8.0 14.0 0.00 0.00 0.00 77 1017.7
20260901121546 84 80 11.0 16.0 0.00 0.00 0.00 80 1017.8
20260901120037 84 52 10.0 15.0 0.00 0.00 0.00 79 1017.8
20260901114538 84 56 9.0 16.0 0.00 0.00 0.00 78 1017.8
20260901113038 84 55 12.0 16.0 0.00 0.00 0.00 78 1017.8
20260901111535 84 33 9.0 16.0 0.00 0.00 0.00 78 1017.8
20260901110042 84 28 10.0 17.0 0.00 0.00 0.00 77 1017.7
20260901104533 84 87 9.0 18.0 0.00 0.00 0.00 78 1017.8
20260901103032 84 39 9.0 18.0 0.00 0.00 0.00 80 1017.8
20260901101530 84 58 8.0 15.0 0.00 0.00 0.00 80 1017.9
20260901100029 84 79 10.0 16.0 0.00 0.00 0.00 80 1017.8
20260901094528 83 53 12.0 17.0 0.00 0.00 0.00 81 1017.9
20260901093027 83 83 12.0 19.0 0.00 0.00 0.00 81 1017.9
20260901091537 83 89 10.0 17.0 0.00 0.00 0.00 81 1017.8
20260901090026 83 50 8.0 14.0 0.00 0.00 0.00 81 1017.8
20260901084523 83 22 10.0 16.0 0.00 0.00 0.00 83 1017.7
20260901083022 83 76 7.0 13.0 0.00 0.00 0.00 83 1017.7
20260901081519 83 359 6.0 13.0 0.00 0.00 0.00 84 1017.6
20260901080018 82 18 4.0 14.0 0.00 0.00 0.00 85 1017.4
20260901074515 83 23 8.0 13.0 0.00 0.00 0.00 84 1017.2
20260901073022 83 22 4.0 9.0 0.00 0.00 0.00 83 1017.0
20260901071513 83 18 4.0 8.0 0.00 0.00 0.00 83 1017.0
20260901070022 82 9 3.0 9.0 0.00 0.00 0.00 84 1016.8
20260901064512 82 357 0.0 0.0 0.00 0.00 0.00 84 1016.8
20260901063008 82 2 0.0 0.0 0.00 0.00 0.00 83 1016.9
20260901061507 81 61 0.0 0.0 0.00 0.00 0.00 82 1016.9
20260901060006 81 16 0.0 0.0 0.00 0.00 0.00 83 1016.9
20260901054607 80 310 0.0 0.0 0.00 0.00 0.00 84 1016.8
20260901053004 79 295 0.0 0.0 0.00 0.00 0.00 85 1016.8
20260901051502 78 292 0.0 0.0 0.00 0.00 0.00 87 1016.6
20260901050100 78 336 0.0 0.0 0.00 0.00 0.00 89 1016.5
20260901044601 78 299 0.0 0.0 0.00 0.00 0.00 90 1016.4
20260901043120 78 276 0.0 0.0 0.00 0.00 0.00 91 1016.3
20260901041607 79 307 0.0 0.0 0.00 0.00 0.00 92 1016.3
20260901034603 80 331 0.0 0.0 0.00 0.00 0.00 92 1016.2
20260901033102 80 332 0.0 0.0 0.00 0.00 0.00 92 1016.1
20260901031550 80 319 0.0 0.0 0.00 0.00 0.00 92 1016.1
20260901030049 80 311 0.0 0.0 0.00 0.00 0.00 92 1016.1
20260901024554 80 313 0.0 0.0 0.00 0.00 0.00 92 1016.2
20260901023047 80 336 0.0 1.0 0.00 0.00 0.00 92 1016.1
20260901021547 80 11 0.0 0.0 0.00 0.00 0.00 92 1016.0
20260901020046 80 345 0.0 5.0 0.00 0.00 0.00 92 1016.0
20260901014544 80 341 2.0 4.0 0.00 0.00 0.00 91 1016.0
20260901013043 80 337 0.0 0.0 0.00 0.00 0.00 91 1015.8
20260901011552 81 29 0.0 0.0 0.00 0.00 0.00 91 1015.8
20260901010043 81 351 0.0 0.0 0.00 0.00 0.00 91 1016.0
20260901004540 81 340 0.0 0.0 0.00 0.00 0.00 91 1016.0
20260901003049 81 324 0.0 0.0 0.00 0.00 0.00 90 1015.8
20260901001539 81 331 0.0 0.0 0.00 0.00 0.00 90 1015.8
20260901000038 81 351 0.0 0.0 0.00 0.00 0.00 90 1015.8
20260831234540 81 337 0.0 0.0 0.00 0.00 0.00 90 1015.9
20260831233036 81 342 0.0 0.0 0.00 0.00 0.00 90 1015.9
20260831231536 81 316 0.0 0.0 0.00 0.00 0.00 90 1015.8
20260831230035 81 324 0.0 0.0 0.00 0.00 0.00 89 1015.8
20260831224533 82 312 0.0 0.0 0.00 0.00 0.00 89 1015.8
20260831223034 82 21 0.0 0.0 0.00 0.00 0.00 89 1015.8
20260831221530 82 352 0.0 0.0 0.00 0.00 0.00 89 1015.7
20260831220031 82 21 0.0 4.0 0.00 0.00 0.00 89 1015.7
20260831214539 82 37 3.0 5.0 0.00 0.00 0.00 89 1015.6
20260831213037 82 32 3.0 5.0 0.00 0.00 0.00 89 1015.5
20260831211525 82 21 2.0 6.0 0.00 0.00 0.00 89 1015.3
20260831210024 82 37 5.0 8.0 0.00 0.00 0.00 89 1015.2